Time,TemperatureF,DewpointF,PressureIn,WindDirection,WindDirectionDegrees,WindSpeedMPH,WindSpeedGustMPH,Humidity,HourlyPrecipIn,Conditions,Clouds,dailyrainin,SoftwareType,DateUTC
2013-11-06 00:09:00,41.6,41.0,30.22,WSW,243,3.0,-999.0,98,-99.99,,,0.00,weatherlink.com 1.10,2013-11-06 08:09:00,
2013-11-06 00:24:00,41.7,41.0,30.22,WSW,243,0.0,-999.0,98,-99.99,,,0.00,weatherlink.com 1.10,2013-11-06 08:24:00,
2013-11-06 00:39:00,41.6,41.0,30.23,WSW,243,3.0,-999.0,98,-99.99,,,0.00,weatherlink.com 1.10,2013-11-06 08:39:00,
2013-11-06 00:54:00,41.8,41.0,30.23,WSW,243,2.0,-999.0,98,-99.99,,,0.00,weatherlink.com 1.10,2013-11-06 08:54:00,
2013-11-06 01:09:00,41.8,41.0,30.23,WSW,243,2.0,-999.0,98,-99.99,,,0.00,weatherlink.com 1.10,2013-11-06 09:09:00,
2013-11-06 01:25:00,41.1,40.0,30.23,WSW,248,2.0,-999.0,97,-99.99,,,0.00,weatherlink.com 1.10,2013-11-06 09:25:00,
2013-11-06 01:55:00,41.7,41.0,30.24,WSW,249,2.0,-999.0,98,-99.99,,,0.00,weatherlink.com 1.10,2013-11-06 09:55:00,
2013-11-06 02:10:00,41.1,41.0,30.24,WSW,249,1.0,-999.0,98,-99.99,,,0.00,weatherlink.com 1.10,2013-11-06 10:10:00,
2013-11-06 02:25:00,40.7,40.0,30.24,WSW,249,0.0,-999.0,98,-99.99,,,0.00,weatherlink.com 1.10,2013-11-06 10:25:00,
2013-11-06 02:40:00,39.9,39.0,30.24,WSW,249,4.0,-999.0,97,-99.99,,,0.00,weatherlink.com 1.10,2013-11-06 10:40:00,
2013-11-06 02:55:00,40.1,40.0,30.23,WSW,249,2.0,-999.0,98,-99.99,,,0.00,weatherlink.com 1.10,2013-11-06 10:55:00,
2013-11-06 03:10:00,40.2,40.0,30.23,WSW,249,2.0,-999.0,98,-99.99,,,0.00,weatherlink.com 1.10,2013-11-06 11:10:00,
2013-11-06 03:25:00,39.7,39.0,30.23,WSW,249,3.0,-999.0,98,-99.99,,,0.00,weatherlink.com 1.10,2013-11-06 11:25:00,
2013-11-06 03:40:00,40.0,39.0,30.23,WSW,257,5.0,-999.0,97,-99.99,,,0.00,weatherlink.com 1.10,2013-11-06 11:40:00,
2013-11-06 03:55:00,39.7,39.0,30.23,WSW,254,0.0,-999.0,98,-99.99,,,0.00,weatherlink.com 1.10,2013-11-06 11:55:00,
2013-11-06 04:10:00,40.5,40.0,30.24,WSW,254,0.0,-999.0,98,-99.99,,,0.00,weatherlink.com 1.10,2013-11-06 12:10:00,
2013-11-06 04:25:00,41.1,41.0,30.24,WSW,254,0.0,-999.0,98,-99.99,,,0.00,weatherlink.com 1.10,2013-11-06 12:25:00,
2013-11-06 04:40:00,41.7,41.0,30.24,WSW,254,0.0,-999.0,98,-99.99,,,0.00,weatherlink.com 1.10,2013-11-06 12:40:00,
2013-11-06 04:55:00,41.1,40.0,30.25,WSW,254,1.0,-999.0,97,-99.99,,,0.00,weatherlink.com 1.10,2013-11-06 12:55:00,
2013-11-06 05:10:00,41.8,41.0,30.25,South,173,3.0,-999.0,98,-99.99,,,0.00,weatherlink.com 1.10,2013-11-06 13:10:00,
2013-11-06 05:24:00,42.2,42.0,30.25,South,171,0.0,-999.0,98,-99.99,,,0.00,weatherlink.com 1.10,2013-11-06 13:24:00,
2013-11-06 05:39:00,42.2,42.0,30.25,South,171,1.0,-999.0,98,-99.99,,,0.00,weatherlink.com 1.10,2013-11-06 13:39:00,
2013-11-06 05:54:00,43.1,43.0,30.25,South,178,2.0,-999.0,98,-99.99,,,0.00,weatherlink.com 1.10,2013-11-06 13:54:00,
2013-11-06 06:09:00,43.3,43.0,30.25,South,172,0.0,-999.0,98,-99.99,,,0.00,weatherlink.com 1.10,2013-11-06 14:09:00,
2013-11-06 06:25:00,43.2,43.0,30.25,SSE,159,5.0,-999.0,98,-99.99,,,0.00,weatherlink.com 1.10,2013-11-06 14:25:00,
2013-11-06 06:40:00,43.1,43.0,30.26,South,180,0.0,-999.0,98,-99.99,,,0.00,weatherlink.com 1.10,2013-11-06 14:40:00,
2013-11-06 06:55:00,43.1,43.0,30.26,South,172,0.0,-999.0,98,-99.99,,,0.00,weatherlink.com 1.10,2013-11-06 14:55:00,
2013-11-06 07:10:00,43.1,43.0,30.26,South,172,0.0,-999.0,98,-99.99,,,0.00,weatherlink.com 1.10,2013-11-06 15:10:00,
2013-11-06 07:24:00,43.1,43.0,30.26,South,172,1.0,-999.0,98,-99.99,,,0.00,weatherlink.com 1.10,2013-11-06 15:24:00,
2013-11-06 07:40:00,43.3,43.0,30.26,SSE,168,0.0,-999.0,98,-99.99,,,0.00,weatherlink.com 1.10,2013-11-06 15:40:00,
2013-11-06 07:55:00,43.6,43.0,30.27,SE,142,3.0,-999.0,98,-99.99,,,0.00,weatherlink.com 1.10,2013-11-06 15:55:00,
2013-11-06 08:10:00,44.1,43.0,30.26,SSE,149,0.0,-999.0,97,-99.99,,,0.00,weatherlink.com 1.10,2013-11-06 16:10:00,
2013-11-06 08:24:00,44.2,43.0,30.27,SSW,198,2.0,-999.0,97,-99.99,,,0.00,weatherlink.com 1.10,2013-11-06 16:24:00,
2013-11-06 08:39:00,44.4,43.0,30.27,South,173,2.0,-999.0,96,-99.99,,,0.00,weatherlink.com 1.10,2013-11-06 16:39:00,
2013-11-06 08:55:00,44.7,44.0,30.27,SSE,157,3.0,-999.0,96,-99.99,,,0.00,weatherlink.com 1.10,2013-11-06 16:55:00,
2013-11-06 09:10:00,45.1,44.0,30.27,SE,136,3.0,-999.0,96,-99.99,,,0.00,weatherlink.com 1.10,2013-11-06 17:10:00,
2013-11-06 09:25:00,45.4,44.0,30.27,SSE,149,0.0,-999.0,95,-99.99,,,0.00,weatherlink.com 1.10,2013-11-06 17:25:00,
2013-11-06 09:40:00,45.7,44.0,30.27,SSE,164,0.0,-999.0,95,-99.99,,,0.00,weatherlink.com 1.10,2013-11-06 17:40:00,
2013-11-06 09:55:00,45.8,44.0,30.27,SSE,157,3.0,-999.0,94,-99.99,,,0.00,weatherlink.com 1.10,2013-11-06 17:55:00,
2013-11-06 10:10:00,45.9,44.0,30.27,South,171,2.0,-999.0,94,-99.99,,,0.00,weatherlink.com 1.10,2013-11-06 18:10:00,
2013-11-06 10:25:00,46.1,45.0,30.27,SSE,160,2.0,-999.0,94,-99.99,,,0.00,weatherlink.com 1.10,2013-11-06 18:25:00,
2013-11-06 10:40:00,46.3,44.0,30.26,SE,128,3.0,-999.0,93,-99.99,,,0.00,weatherlink.com 1.10,2013-11-06 18:40:00,
2013-11-06 10:55:00,46.5,45.0,30.26,ESE,105,1.0,-999.0,93,-99.99,,,0.00,weatherlink.com 1.10,2013-11-06 18:55:00,
2013-11-06 11:10:00,46.6,45.0,30.26,ESE,105,1.0,-999.0,93,-99.99,,,0.00,weatherlink.com 1.10,2013-11-06 19:10:00,
2013-11-06 11:25:00,46.7,45.0,30.25,ESE,109,3.0,-999.0,93,-99.99,,,0.00,weatherlink.com 1.10,2013-11-06 19:25:00,
2013-11-06 11:40:00,46.8,45.0,30.25,ESE,111,1.0,-999.0,93,-99.99,,,0.00,weatherlink.com 1.10,2013-11-06 19:40:00,
2013-11-06 11:55:00,46.9,45.0,30.25,ESE,103,3.0,-999.0,93,-99.99,,,0.00,weatherlink.com 1.10,2013-11-06 19:55:00,
2013-11-06 12:10:00,47.0,45.0,30.24,ESE,106,4.0,-999.0,92,-99.99,,,0.00,weatherlink.com 1.10,2013-11-06 20:10:00,
2013-11-06 12:25:00,47.2,45.0,30.24,ESE,103,4.0,-999.0,92,-99.99,,,0.00,weatherlink.com 1.10,2013-11-06 20:25:00,
2013-11-06 12:40:00,47.3,45.0,30.23,East,100,0.0,-999.0,92,-99.99,,,0.00,weatherlink.com 1.10,2013-11-06 20:40:00,
2013-11-06 13:10:00,47.4,45.0,30.23,ESE,105,3.0,-999.0,92,-99.99,,,0.00,weatherlink.com 1.10,2013-11-06 21:10:00,
2013-11-06 13:25:00,47.5,45.0,30.22,ESE,105,3.0,-999.0,91,-99.99,,,0.00,weatherlink.com 1.10,2013-11-06 21:25:00,
2013-11-06 13:40:00,47.7,45.0,30.21,East,100,4.0,-999.0,91,-99.99,,,0.00,weatherlink.com 1.10,2013-11-06 21:40:00,
2013-11-06 13:55:00,47.7,45.0,30.21,SE,138,8.0,-999.0,90,-99.99,,,0.00,weatherlink.com 1.10,2013-11-06 21:55:00,
2013-11-06 14:11:00,47.7,45.0,30.21,ESE,109,2.0,-999.0,91,-99.99,,,0.00,weatherlink.com 1.10,2013-11-06 22:11:00,
2013-11-06 14:25:00,47.6,45.0,30.20,East,88,6.0,-999.0,91,-99.99,,,0.00,weatherlink.com 1.10,2013-11-06 22:25:00,
2013-11-06 14:40:00,47.6,45.0,30.20,East,82,5.0,-999.0,91,-99.99,,,0.00,weatherlink.com 1.10,2013-11-06 22:40:00,
2013-11-06 14:56:00,47.4,45.0,30.20,SSE,157,6.0,-999.0,91,-99.99,,,0.00,weatherlink.com 1.10,2013-11-06 22:56:00,
2013-11-06 15:11:00,47.4,45.0,30.19,ESE,105,2.0,-999.0,91,-99.99,,,0.00,weatherlink.com 1.10,2013-11-06 23:11:00,
2013-11-06 15:40:00,47.2,45.0,30.18,SE,128,6.0,-999.0,92,-99.99,,,0.00,weatherlink.com 1.10,2013-11-06 23:40:00,
2013-11-06 15:55:00,47.1,45.0,30.18,East,84,5.0,-999.0,93,-99.99,,,0.00,weatherlink.com 1.10,2013-11-06 23:55:00,
2013-11-06 16:10:00,47.2,45.0,30.17,ESE,123,9.0,-999.0,92,-99.99,,,0.00,weatherlink.com 1.10,2013-11-07 00:10:00,
2013-11-06 16:26:00,47.6,45.0,30.16,ESE,104,4.0,-999.0,91,-99.99,,,0.00,weatherlink.com 1.10,2013-11-07 00:26:00,
2013-11-06 16:41:00,47.7,45.0,30.15,ESE,104,4.0,-999.0,90,-99.99,,,0.00,weatherlink.com 1.10,2013-11-07 00:41:00,
2013-11-06 16:56:00,47.8,45.0,30.14,SE,140,13.0,-999.0,89,-99.99,,,0.00,weatherlink.com 1.10,2013-11-07 00:56:00,
2013-11-06 17:11:00,47.8,45.0,30.14,SE,140,5.0,-999.0,89,-99.99,,,0.00,weatherlink.com 1.10,2013-11-07 01:11:00,
2013-11-06 17:26:00,47.8,45.0,30.14,SE,143,4.0,-999.0,90,-99.99,,,0.00,weatherlink.com 1.10,2013-11-07 01:26:00,
2013-11-06 17:41:00,47.6,45.0,30.14,ESE,123,5.0,-999.0,90,-99.99,,,0.00,weatherlink.com 1.10,2013-11-07 01:41:00,
2013-11-06 17:56:00,47.7,45.0,30.13,East,101,5.0,-999.0,90,-99.99,,,0.00,weatherlink.com 1.10,2013-11-07 01:56:00,
2013-11-06 18:11:00,47.8,45.0,30.11,ESE,104,4.0,-999.0,90,-99.99,,,0.00,weatherlink.com 1.10,2013-11-07 02:11:00,
2013-11-06 18:26:00,47.8,45.0,30.10,East,97,4.0,-999.0,90,-99.99,,,0.00,weatherlink.com 1.10,2013-11-07 02:26:00,
2013-11-06 18:41:00,47.9,45.0,30.10,East,92,2.0,-999.0,89,-99.99,,,0.00,weatherlink.com 1.10,2013-11-07 02:41:00,
2013-11-06 18:56:00,47.9,45.0,30.10,East,95,7.0,-999.0,89,-99.99,,,0.00,weatherlink.com 1.10,2013-11-07 02:56:00,
2013-11-06 19:11:00,48.1,45.0,30.09,SE,128,11.0,-999.0,89,-99.99,,,0.00,weatherlink.com 1.10,2013-11-07 03:11:00,
2013-11-06 19:26:00,47.9,45.0,30.08,East,95,10.0,-999.0,89,-99.99,,,0.00,weatherlink.com 1.10,2013-11-07 03:26:00,
2013-11-06 19:41:00,47.7,45.0,30.06,SE,141,9.0,-999.0,90,-99.99,,,0.00,weatherlink.com 1.10,2013-11-07 03:41:00,
2013-11-06 19:56:00,47.6,45.0,30.06,ESE,107,16.0,-999.0,90,-99.99,,,0.00,weatherlink.com 1.10,2013-11-07 03:56:00,
2013-11-06 20:11:00,47.6,45.0,30.05,East,96,6.0,-999.0,90,-99.99,,,0.00,weatherlink.com 1.10,2013-11-07 04:11:00,
2013-11-06 20:26:00,47.5,45.0,30.03,SE,126,6.0,-999.0,90,-99.99,,,0.00,weatherlink.com 1.10,2013-11-07 04:26:00,
2013-11-06 20:41:00,47.4,45.0,30.02,SE,145,11.0,-999.0,91,-99.99,,,0.00,weatherlink.com 1.10,2013-11-07 04:41:00,
2013-11-06 20:56:00,47.3,45.0,30.00,South,186,5.0,-999.0,91,-99.99,,,0.00,weatherlink.com 1.10,2013-11-07 04:56:00,
2013-11-06 21:11:00,47.0,45.0,30.01,SE,145,11.0,-999.0,92,-99.99,,,0.00,weatherlink.com 1.10,2013-11-07 05:11:00,
2013-11-06 21:26:00,46.9,45.0,30.00,East,82,4.0,-999.0,93,-99.99,,,0.00,weatherlink.com 1.10,2013-11-07 05:26:00,
2013-11-06 21:41:00,46.7,45.0,29.99,East,94,5.0,-999.0,93,-99.99,,,0.00,weatherlink.com 1.10,2013-11-07 05:41:00,
2013-11-06 21:56:00,46.8,45.0,29.98,ESE,107,11.0,-999.0,93,-99.99,,,0.00,weatherlink.com 1.10,2013-11-07 05:56:00,
2013-11-06 22:11:00,46.8,45.0,29.97,SE,130,3.0,-999.0,94,-99.99,,,0.00,weatherlink.com 1.10,2013-11-07 06:11:00,
2013-11-06 22:25:00,46.7,45.0,29.97,SE,140,5.0,-999.0,94,-99.99,,,0.00,weatherlink.com 1.10,2013-11-07 06:25:00,
2013-11-06 22:40:00,46.4,45.0,29.96,SE,124,4.0,-999.0,95,-99.99,,,0.00,weatherlink.com 1.10,2013-11-07 06:40:00,
2013-11-06 22:56:00,46.4,45.0,29.94,NE,44,0.0,-999.0,95,-99.99,,,0.00,weatherlink.com 1.10,2013-11-07 06:56:00,
2013-11-06 23:11:00,46.4,45.0,29.94,ESE,117,3.0,-999.0,96,-99.99,,,0.00,weatherlink.com 1.10,2013-11-07 07:11:00,
2013-11-06 23:26:00,46.4,45.0,29.93,SE,125,3.0,-999.0,96,-99.99,,,0.00,weatherlink.com 1.10,2013-11-07 07:26:00,
2013-11-06 23:41:00,46.3,45.0,29.92,ESE,117,2.0,-999.0,96,-99.99,,,0.00,weatherlink.com 1.10,2013-11-07 07:41:00,
2013-11-06 23:56:00,46.3,45.0,29.91,ESE,106,0.0,-999.0,96,-99.99,,,0.00,weatherlink.com 1.10,2013-11-07 07:56:00,